HAWK-4A

Last updated on Fri Dec 29 2023 00:03:29 GMT+0000 (Coordinated Universal Time)

1 52167U 22033L 23362.20609083 .00012831 00000+0 40481-3 0 9999 2 52167 97.3378 80.3448 0007388 192.9613 167.1440 15.32968425 96917
UTC large
Height (km)
Speed (km/s)
/
Latitude / Longitude
Inclination (degrees)
Orbital Period (minutes)
Azimuth
Elevation
Range (km)
Doppler Factor

Next 0 passes for location: London (51.5072 / 0.1276)

Sorry there are no passes over London.